[Iaude] MPEC V217: 2022 VR1 [a=1.00,e=0.17,i=5.8,H=24.79]
    mpec at marsden.cfa.harvard.edu 
    mpec at marsden.cfa.harvard.edu
       
    Sun Nov 12 10:38:10 EST 2023
    
    
  
M.P.E.C. 2023-V217                            Issued 2023 November 12, 15:36 UT
     The Minor Planet Electronic Circulars contain information on unusual
         minor planets, routine data on comets and natural satellites,
         and occasional editorial announcements.  They are published
    on behalf of Division F of the International Astronomical Union by the
          Minor Planet Center, Smithsonian Astrophysical Observatory,
                          Cambridge, MA 02138, U.S.A.
			  
             Prepared using the Tamkin Foundation Computer Network
                              MPC at CFA.HARVARD.EDU
            URL https://www.minorplanetcenter.net/    ISSN 1523-6714
                                    2022 VR1                                    
                           Revision to MPEC 2022-V148                           
Additional Observations:
     K22V01R 2C2023 11 04.43677 05 28 04.49 +60 41 32.9          20.4 r EV217G37
     K22V01R 2C2023 11 04.43715 05 28 04.70 +60 41 33.6          20.3 r EV217G37
     K22V01R 2C2023 11 04.43754 05 28 04.91 +60 41 34.2          20.2 r EV217G37
     K22V01R 2C2023 11 04.43793 05 28 05.12 +60 41 34.9          20.4 r EV217G37
     K22V01R 2C2023 11 04.43832 05 28 05.32 +60 41 35.5          20.6 r EV217G37
     K22V01R 2C2023 11 04.43870 05 28 05.53 +60 41 36.2          20.5 r EV217G37
     K22V01R 2C2023 11 04.43909 05 28 05.74 +60 41 36.9          20.4 r EV217G37
     K22V01R 2C2023 11 04.43948 05 28 05.95 +60 41 37.5          20.1 r EV217G37
     K22V01R 2C2023 11 04.43987 05 28 06.15 +60 41 38.1          20.3 r EV217G37
     K22V01R 2C2023 11 04.44025 05 28 06.35 +60 41 38.9          20.6 r EV217G37
     K22V01R $C2023 11 11.23010407 29 47.817+62 24 29.77         20.0 GVEV217J04
     K22V01R $C2023 11 11.23068307 29 48.682+62 24 28.66         19.5 GVEV217J04
     K22V01R $C2023 11 11.23127007 29 49.536+62 24 27.54         19.2 GVEV217J04
     K22V01R 1C2023 11 11.39230807 34 38.672+62 19 22.37         18.97GVEV217703
     K22V01R 1C2023 11 11.39807207 34 47.777+62 19 14.34         20.09GVEV217703
     K22V01R 1C2023 11 11.40382007 34 56.521+62 19 09.05         19.16GVEV217703
     K22V01R 1C2023 11 11.40957207 35 05.154+62 19 02.53         19.62GVEV217703
     K22V01R mC2023 11 11.50292607 37 28.265+62 16 27.88         19.36GVEV217I52
     K22V01R mC2023 11 11.50309607 37 28.488+62 16 27.66         19.24GVEV217I52
     K22V01R mC2023 11 11.50536707 37 31.984+62 16 22.94         19.17GVEV217I52
     K22V01R mC2023 11 11.50763707 37 35.432+62 16 18.37         19.31GVEV217I52
     K22V01R 1C2023 11 11.86781 07 48 34.33 +61 58 40.8          19.9 VXEV217033
     K22V01R 1C2023 11 11.86810 07 48 34.82 +61 58 40.6          20.0 VXEV217033
     K22V01R 1C2023 11 11.86838 07 48 35.36 +61 58 40.0          19.9 VXEV217033
     K22V01R 1C2023 11 11.86877 07 48 36.06 +61 58 39.1          20.2 VXEV217033
     K22V01R 1C2023 11 11.94052 07 50 45.08 +61 56 31.3          20.4 VXEV217033
     K22V01R 1C2023 11 11.94080 07 50 45.59 +61 56 30.8          20.2 VXEV217033
     K22V01R 1C2023 11 11.94108 07 50 46.09 +61 56 30.3          19.8 VXEV217033
     K22V01R KC2023 11 11.95217 07 51 08.96 +61 56 23.5          19.0 GVEV217104
     K22V01R KC2023 11 11.95507 07 51 14.08 +61 56 17.4          18.7 GVEV217104
     K22V01R pC2023 11 11.96566907 51 31.45 +61 56 01.8          19.2 GVEV217L01
     K22V01R pC2023 11 11.96763707 51 35.00 +61 55 59.0          19.5 GVEV217L01
     K22V01R pC2023 11 11.96999607 51 39.19 +61 55 54.1          19.7 GVEV217L01
     K22V01R KB2023 11 12.37429 08 03 58.35 +61 36 02.2          19.2 GXEV217H36
     K22V01R KB2023 11 12.37911 08 04 06.70 +61 35 47.3          19.6 GXEV217H36
     K22V01R KB2023 11 12.38405 08 04 15.14 +61 35 32.8          19.0 GXEV217H36
     K22V01R KB2023 11 12.42605 08 05 27.68 +61 33 13.4          19.4 GVEV217734
     K22V01R KB2023 11 12.43168 08 05 37.35 +61 32 53.5          19.2 GVEV217734
     K22V01R KB2023 11 12.43731 08 05 47.04 +61 32 33.5          19.1 GVEV217734
Observer details:
033 Karl Schwarzschild Observatory, Tautenburg.  Observers S. Melnikov, C.
    Hogner, F. Ludwig, M. Hartmann, B. Stecklum.  Measurer B. Stecklum.
    1.34-m f/3 Schmidt + CCD.
104 San Marcello Pistoiese.  Observers P. Bacci, M. Maestripieri, M. D.
    Grazia.  Measurers P. Bacci, L. Tesi, G. Fagioli.  0.60-m F4 Reflector +
    CCD.
703 Catalina Sky Survey.  Observer R. A. Kowalski.  Measurers E. C. Beshore,
    D. Fay, J. B. Fazekas, D. C. Fuls, A. R. Gibbs, A. D. Grauer, H. Groeller,
    J. K. Hogan, R. A. Kowalski, S. M. Larson, G. J. Leonard, D. Rankin, R. L.
    Seaman, F. C. Shelly, K. W. Wierzchos.  0.68-m Schmidt + 10K CCD.
734 Farpoint Observatory, Eskridge.  Observers D. Cromer, G. Hug, D. Goodin,
    R. Valentine.  Measurer D. Cromer.  0.69-m f/3.54 reflector + CMO.
G37 Lowell Discovery Telescope.  Observer T. Kareta.  Measurer N. Moskovitz.
    Lowell Discovery Telescope.
H36 Sandlot Observatory, Scranton.  Observer G. Hug.  0.56-m f/4.8 reflector +
    CMO.
I52 Steward Observatory, Mt. Lemmon Station.  Observer J. K. Hogan.  Measurers
    E. C. Beshore, D. Fay, J. B. Fazekas, D. C. Fuls, A. R. Gibbs, A. D.
    Grauer, H. Groeller, J. K. Hogan, R. A. Kowalski, S. M. Larson, G. J.
    Leonard, D. Rankin, R. L. Seaman, F. C. Shelly, K. W. Wierzchos.  1.0-m
    prime focus + CCD.
J04 ESA Optical Ground Station, Tenerife.  Observers D. Abreu, F. Ocana, M.
    Micheli, L. Conversi.  Measurers F. Ocana, M. Micheli, R. Kresken.
    1.0-m f/4.4 reflector + CCD.
L01 Visnjan Observatory, Tican.  Observer K. Korlevic.  1.0-m f/2.9 reflector
    + CCD.
First and last observations above in comparison with prediction:
Residuals in seconds of arc (or two decimals in degrees), reference and Delta-T
231104 G37 0.44+ 0.17+    231112 734 0.44+ 0.64+    E2023-R01   -0.01 days
Orbital elements:
2022 VR1                                                 Earth MOID = 0.0108 AU
Epoch 2023 Sept. 13.0 TT = JDT 2460200.5                Veres                   
M 218.19056              (2000.0)            P               Q                  
n   0.98828324     Peri.  269.26482     -0.87830754     -0.46963434             
a   0.9981943      Node   242.72085     +0.46887019     -0.80949403             
e   0.1681667      Incl.    5.78278     +0.09346986     -0.35236771             
P   1.00           H   24.79          G   0.15           U   0                  
Residuals in seconds of arc
221031 G96  0.2+  0.2-    221113 858  0.1-  0.1-    231104 G37  0.0   0.1+
221031 G96  0.1-  0.0     221114 T08  0.0   0.1+    231104 G37  0.0   0.1+
221112 T05 (0.6-  3.0+)   221114 T08  0.4+  0.1-    231104 G37  0.1-  0.2+
221112 J95  0.0   0.2+    221114 T08  0.6+  0.5-    231111 J04  0.0   0.2+
221112 J95  0.2+  0.1-    221114 T08  0.5+  0.4+    231111 J04  0.1+  0.0
221112 J95  0.3-  0.1-    221114 A48  0.2+  0.1-    231111 J04  0.0   0.2-
221112 J95  0.2-  0.1-    221114 A48  0.3-  0.1+    231111 703  0.4-  0.1+
221112 L01  0.1-  0.2-    221114 A48  0.8+  0.3+    231111 703  1.1+  1.3-
221112 L01  0.1-  0.0     221114 A48  0.5+  0.5+    231111 703  0.3+  0.2+
221112 L01  0.1-  0.1+    221115 Z80  0.1+  0.0     231111 703  1.1-  0.8+
221112 L01  0.6-  0.7+    221115 C40  0.1-  0.4-    231111 I52  0.2+  0.0
221112 L01  0.7-  0.5+    221115 Z80  0.1-  0.1-    231111 I52  0.1-  0.1+
221112 L18  0.0   0.1-    221115 C40  0.1+  0.1+    231111 I52  0.0   0.0
221112 L18  0.7+  0.1-    221115 C40  0.0   0.1-    231111 I52  0.3-  0.2+
221112 L18  0.1+  0.3+    221115 C40  0.5+  0.2+    231111 033  0.2+  0.1-
221112 Z80  0.1+  0.4+    221115 C40  0.2+  0.1-    231111 033  0.1-  0.2+
221112 Z80  0.2-  1.0+    221115 C40  0.1-  0.4+    231111 033  0.1+  0.1+
221112 958  0.2-  0.5-    221117 Z80  1.0-  1.2+    231111 033  0.1+  0.1-
221112 958  0.5-  0.1-    221117 Z80  0.8+  0.1-    231111 033  0.1-  0.1+
221112 958  0.2-  0.4-    221118 C51  0.2+  0.1-    231111 033  0.0   0.1+
221112 204  0.5+  0.0     221118 K19  0.2+  0.2+    231111 033  0.0   0.1+
221112 204  0.1+  0.1+    221118 K19  0.7+  0.8+    231111 104  0.1+  0.8+
221112 204  0.2+  0.3+    221118 K19  0.8-  0.9-    231111 104  0.2+  0.1-
221112 104  0.1+  0.2+    221120 204  0.9-  0.3+    231111 L01  1.4-  1.1-
221112 104  0.2+  0.1+    221120 204  0.5-  0.0     231111 L01  0.6-  0.2-
221112 104  0.3+  0.3+    231104 G37  0.0   0.1+    231111 L01  0.1-  0.7-
221113 734  0.2-  0.1+    231104 G37  0.0   0.2+    231112 H36  0.3+  0.2+
221113 734  0.0   0.1+    231104 G37  0.0   0.1+    231112 H36  0.4+  0.0
221113 734  0.0   0.0     231104 G37  0.0   0.2+    231112 H36  0.4-  0.8+
221113 858  0.0   0.0     231104 G37  0.0   0.1+    231112 734  0.1+  0.2+
221113 734  0.1+  0.1-    231104 G37  0.0   0.2+    231112 734  0.0   0.0
221113 858  0.2-  0.1+    231104 G37  0.0   0.2+    231112 734  0.1+  0.0
Ephemeris:
2022 VR1                 a,e,i = 1.00, 0.17, 6                   q = 0.8303
Date    TT    R. A. (2000) Decl.     Delta      r    Elong.  Phase     V
2023 10 13    03 46 24.3 +51 10 07   0.1363  1.0833   125.8    48.4    22.5
...
2023 10 28    04 34 27.4 +57 04 53   0.08233 1.0461   127.6    48.8    21.3
...
2023 11 05    05 34 21.7 +60 57 04   0.05545 1.0243   124.7    52.8    20.5
...
2023 11 11    07 23 31.0 +62 27 22   0.03688 1.0073   116.5    61.6    19.8
2023 11 12    07 52 08.9 +61 54 49   0.03406 1.0044   114.0    64.2    19.7
2023 11 13    08 23 53.6 +60 49 24   0.03138 1.0015   111.1    67.3    19.6
...
2023 11 19    11 36 39.9 +32 52 24   0.02093 0.9840    77.1   101.7    20.1
...
2023 11 27    13 34 47.2 -18 15 02   0.03293 0.9605    36.2   142.6    24.5
...
2023 12 12    14 44 36.7 -38 18 37   0.08399 0.9173    35.2   141.8    26.3
A. U. Tomatic                (C) Copyright 2023 MPC           M.P.E.C. 2023-V217
    
    
More information about the Iaude
mailing list